Home   Weather   Wolfsburg   Past weeks

Flag for Germany Past Weather in Wolfsburg, Lower Saxony, Germany — Yesterday and Last 2 Weeks

Now
41 °F

Drizzle. Mostly cloudy.


Feels Like: 34 °F
Forecast: 42 / 46 °F
Wind: 12 mph from Southwest

Location: Braunschweig Wolfsburg

Current Time: Dec 9, 2016 at 6:53:31 am

Latest Report: Dec 9, 2016 at 6:20 am


Visibility: 2 mi

Pressure: 30.24 "Hg

Humidity: 93%

Dew Point: 39 °F

Location of WolfsburgLocation

Past Weather in Wolfsburg — Graph

°F

Wolfsburg Temperature Yesterday

Maximum temperature yesterday: 48 °F (at 1:50 pm)
Minimum temperature yesterday: 41 °F (at 5:50 am)
Average temperature yesterday: 44 °F

High & Low Weather Summary for the Past Weeks

 TemperatureHumidityPressure
High48 °F (Dec 8, 1:50 pm)100% (Nov 24, 5:50 am)30.57 "Hg (Nov 24, 5:50 am)
Low19 °F (Nov 29, 7:20 am)52% (Dec 5, 1:50 pm)29.95 "Hg (Dec 1, 9:50 pm)
Average36 °F82%30.29 "Hg
* Reported Nov 24 5:50 am — Dec 9 5:20 am, Wolfsburg, Weather by CustomWeather, © 2016

Note: Actual official high and low records may vary slightly from our data, if they occured in-between our weather recording intervals... More about our weather records

Advertising

Wolfsburg Weather History for the Previous 24 Hours

Scroll right to see more
 ConditionsComfort  
Time TempWeatherWind HumidityBarometerVisibility
5:20 am
Fri, Dec 9
41 °FFog.9 mph93%30.24 "Hg3 mi
9:50 pm
Thu, Dec 8
43 °FClear.14 mph61%30.27 "Hg10 mi
9:20 pm43 °FClear.12 mph61%30.27 "Hg10 mi
8:50 pm43 °FClear.8 mph61%30.27 "Hg10 mi
8:20 pm43 °FClear.14 mph61%30.27 "Hg10 mi
7:50 pm45 °FClear.13 mph57%30.27 "Hg10 mi
7:20 pm45 °FPassing clouds.10 mph57%30.27 "HgN/A
6:50 pm45 °FClear.13 mph57%30.27 "Hg10 mi
6:20 pm45 °FClear.9 mph57%30.27 "Hg10 mi
5:50 pm45 °FClear.9 mph57%30.27 "Hg10 mi
5:20 pm45 °FClear.14 mph61%30.27 "Hg10 mi
4:50 pm45 °FClear.12 mph61%30.27 "Hg10 mi
4:20 pm45 °FClear.10 mph61%30.27 "Hg10 mi
3:50 pm46 °FSunny.9 mph57%30.27 "Hg10 mi
3:20 pm46 °FSunny.12 mph62%30.27 "Hg10 mi
2:50 pm48 °FSunny.13 mph58%30.27 "Hg10 mi
2:20 pm48 °FSunny.12 mph58%30.27 "Hg10 mi
1:50 pm48 °FSunny.9 mph58%30.27 "Hg10 mi
1:20 pm46 °FSunny.8 mph62%30.30 "Hg10 mi
12:50 pm46 °FSunny.9 mph62%30.30 "Hg10 mi
12:20 pm46 °FSunny.9 mph62%30.30 "Hg10 mi
11:50 am46 °FSunny.8 mph62%30.30 "Hg10 mi
11:20 am45 °FSunny.9 mph66%30.30 "Hg10 mi
10:50 am45 °FSunny.13 mph66%30.30 "Hg10 mi
10:20 am43 °FSunny.14 mph71%30.30 "Hg10 mi
9:50 am43 °FSunny.13 mph71%30.30 "Hg10 mi
9:20 am43 °FSunny.13 mph71%30.33 "Hg10 mi
8:50 am43 °FSunny.10 mph71%30.33 "Hg10 mi
8:20 am41 °FSunny.12 mph76%30.33 "Hg10 mi
7:50 am41 °FClear.12 mph70%30.33 "Hg10 mi
7:20 am41 °FClear.12 mph70%30.33 "Hg10 mi
6:50 am41 °FClear.13 mph76%30.33 "Hg10 mi
Weather by CustomWeather, © 2016

See weather overviewHow to use our weather pages